Lid_Strength_Index
0 0 -0 -0 0 0 0 -0 -0 -0 -0 -0 -0 -0 -0 -1 -1 -1 -1 -1 -1 -1 -2 -2 -1 -1 -1 -0 0 -0 0 0
0 0 0 0 0 0 0 -0 -0 -0 -0 0 1 0 -0 -1 -1 -1 -1 -1 -1 -1 -1 -1 -1 -1 -1 -0 0 0 0 -0
0 0 0 0 0 -0 -0 -0 -0 -0 -0 0 1 0 -0 -0 -0 -0 -1 -1 -1 -1 -1 -1 -1 -1 -1 -1 -0 0 0 0
1 1 1 0 -0 0 0 0 0 0 0 1 1 1 0 -0 -0 -0 -0 -1 -1 -1 -1 -1 -1 -0 -1 -1 0 0 0 0
2 1 1 1 0 1 0 0 0 1 0 0 1 0 1 0 0 -0 -0 -0 -0 -0 -0 0 0 -0 -0 0 -0 0 0 0
1 1 1 1 0 0 0 1 1 1 1 0 1 0 1 1 0 0 0 0 0 0 0 0 0 -0 0 -0 -0 0 0 0
2 1 1 1 1 1 1 1 1 1 1 1 0 1 1 1 1 0 0 0 0 0 1 0 1 0 -0 -0 0 0 0 0
2 1 1 1 2 1 2 1 1 1 1 1 1 1 1 1 1 0 0 0 0 0 0 1 1 0 0 -0 -0 0 0 1
2 2 1 1 1 2 2 2 1 2 2 0 1 1 1 1 1 1 1 0 1 1 1 1 1 0 0 -0 -0 0 1 1
2 1 1 2 2 2 1 2 1 1 1 1 1 1 1 1 1 1 0 1 1 1 0 1 1 1 1 0 0 1 1 1
2 1 1 1 2 2 2 2 1 1 1 1 1 1 1 1 1 1 1 1 1 1 1 1 2 1 1 1 1 2 2 1
2 1 2 1 1 2 2 2 2 2 1 1 0 0 1 1 2 2 2 1 1 1 2 1 1 1 1 1 1 2 2 2
2 2 2 2 2 3 2 3 2 3 2 1 1 1 1 1 1 2 2 2 1 1 2 2 2 1 2 2 3 3 4 3
2 2 2 2 1 2 3 2 2 1 2 2 1 1 1 1 2 2 2 1 1 1 1 2 2 1 3 3 5 4 4 4
3 2 2 2 2 2 3 2 2 2 2 1 2 1 1 1 2 2 1 1 1 1 1 2 3 2 2 3 6 7 6 4
3 2 2 2 2 2 2 3 3 2 2 1 2 2 2 1 2 2 1 0 1 1 1 1 2 3 2 1 3 4 6 7
3 3 3 2 2 2 2 3 2 2 2 1 2 3 2 2 1 1 1 1 1 1 1 1 2 2 2 3 4 4 4 6
5 4 3 2 2 2 2 3 2 3 2 3 3 3 3 2 2 2 1 1 1 1 1 1 2 1 2 3 3 4 5 6
7 6 5 5 2 2 2 2 2 3 3 3 3 3 3 3 2 2 2 1 1 1 1 2 2 2 2 2 2 3 3 4
9 8 7 6 3 2 2 2 2 2 3 3 3 3 3 2 2 2 1 1 1 1 2 2 2 2 2 2 2 2 3 3